timestamp,surface_pressure_avg,surface_temp_avg,battery_voltage,lat,long
2019-10-30 00:00:00+00:00,356.2312,8.8,12.89,47.84626,-54.09684
2019-10-30 00:10:00+00:00,356.6811,8.8,12.81,47.84626,-54.09684
2019-10-30 00:20:00+00:00,360.9063,8.7,12.89,47.84626,-54.09684
2019-10-30 00:30:00+00:00,365.363,8.6,12.89,47.84626,-54.09684
2019-10-30 00:40:00+00:00,364.2247,8.4,12.97,47.84626,-54.09684
2019-10-30 00:50:00+00:00,364.0062,8.4,12.97,47.84626,-54.09684
2019-10-30 01:00:00+00:00,370.4528,8.4,12.89,47.84626,-54.09684
2019-10-30 01:10:00+00:00,370.2228,8.3,12.81,47.84626,-54.09684
2019-10-30 01:20:00+00:00,363.0046,8.3,12.89,47.84626,-54.09684
2019-10-30 01:30:00+00:00,362.993,8.4,12.89,47.84626,-54.09684
2019-10-30 01:40:00+00:00,365.9162,8.45,12.89,47.84626,-54.09684
2019-10-30 01:50:00+00:00,357.5862,8.57,12.97,47.84626,-54.09684
2019-10-30 02:00:00+00:00,345.4479,8.6,12.89,47.84626,-54.09684
2019-10-30 02:10:00+00:00,341.6813,8.6,12.81,47.84626,-54.09684
2019-10-30 02:20:00+00:00,338.3763,8.6,12.89,47.84626,-54.09684
2019-10-30 02:30:00+00:00,325.2463,8.59,12.89,47.84626,-54.09684
2019-10-30 02:40:00+00:00,315.6063,8.59,12.89,47.84626,-54.09684
2019-10-30 02:50:00+00:00,312.6281,8.59,12.89,47.84626,-54.09684
2019-10-30 03:00:00+00:00,305.6863,8.59,12.81,47.84626,-54.09684
2019-10-30 03:10:00+00:00,295.4579,8.59,12.81,47.84626,-54.09684
2019-10-30 03:20:00+00:00,290.3547,8.59,12.89,47.84626,-54.09684
2019-10-30 03:30:00+00:00,286.9063,8.6,12.89,47.84626,-54.09684
2019-10-30 03:40:00+00:00,276.4664,8.44,12.89,47.84626,-54.09684
2019-10-30 03:50:00+00:00,259.0781,8.5,12.89,47.84626,-54.09684
2019-10-30 04:00:00+00:00,246.6514,8.5,12.81,47.84626,-54.09684
2019-10-30 04:10:00+00:00,237.3464,8.5,12.73,47.84626,-54.09684
2019-10-30 04:20:00+00:00,227.7564,8.5,12.81,47.84626,-54.09684
2019-10-30 04:30:00+00:00,217.6314,8.4,12.89,47.84626,-54.09684
2019-10-30 04:40:00+00:00,207.3514,8.4,12.89,47.84626,-54.09684
2019-10-30 04:50:00+00:00,198.4881,8.4,12.89,47.84626,-54.09684
2019-10-30 05:00:00+00:00,191.7331,8.5,12.81,47.84626,-54.09684
2019-10-30 05:10:00+00:00,184.3398,8.5,12.73,47.84626,-54.09684
2019-10-30 05:20:00+00:00,176.7415,8.49,12.81,47.84626,-54.09684
2019-10-30 05:30:00+00:00,172.2698,8.44,12.81,47.84626,-54.09684
2019-10-30 05:40:00+00:00,169.1965,8.4,12.89,47.84626,-54.09684
2019-10-30 05:50:00+00:00,163.7898,8.4,12.89,47.84626,-54.09684
2019-10-30 06:00:00+00:00,158.1265,8.4,12.81,47.84626,-54.09684
2019-10-30 06:10:00+00:00,158.1248,8.3,12.73,47.84626,-54.09684
2019-10-30 06:20:00+00:00,159.6898,8.3,12.81,47.84626,-54.09684
2019-10-30 06:30:00+00:00,158.6765,8.2,12.81,47.84626,-54.09684
2019-10-30 06:40:00+00:00,160.3265,8.2,12.89,47.84626,-54.09684
2019-10-30 06:50:00+00:00,166.7515,8.17,12.89,47.84626,-54.09684
2019-10-30 07:00:00+00:00,172.2015,8.12,12.81,47.84626,-54.09684
2019-10-30 07:10:00+00:00,174.3049,8.1,12.73,47.84626,-54.09684
2019-10-30 07:20:00+00:00,176.0414,8.1,12.81,47.84626,-54.09684
2019-10-30 07:30:00+00:00,179.6065,8.1,12.81,47.84626,-54.09684
2019-10-30 07:40:00+00:00,185.5448,8.1,12.81,47.84626,-54.09684
2019-10-30 07:50:00+00:00,189.1098,8.1,12.89,47.84626,-54.09684
2019-10-30 08:00:00+00:00,194.0431,8.1,12.81,47.84626,-54.09684
2019-10-30 08:10:00+00:00,203.2681,8.1,12.73,47.84626,-54.09684
2019-10-30 08:20:00+00:00,209.2631,8.1,12.81,47.84626,-54.09684
2019-10-30 08:30:00+00:00,212.2397,8.1,12.81,47.84626,-54.09684
2019-10-30 08:40:00+00:00,217.3848,8.1,12.81,47.84626,-54.09684
2019-10-30 08:50:00+00:00,224.6164,8.1,12.81,47.84626,-54.09684
2019-10-30 09:00:00+00:00,230.2548,8.09,12.81,47.84626,-54.09684
2019-10-30 09:10:00+00:00,236.5081,8.09,12.73,47.84626,-54.09684
2019-10-30 09:20:00+00:00,243.4897,8.09,12.81,47.84626,-54.09684
2019-10-30 09:30:00+00:00,248.5481,8.05,12.81,47.84626,-54.09684
2019-10-30 09:40:00+00:00,253.9998,8.04,12.81,47.84626,-54.09684
2019-10-30 09:50:00+00:00,262.3997,8.0,12.81,47.84626,-54.09684
2019-10-30 10:00:00+00:00,270.9098,8.0,12.73,47.84626,-54.09684
2019-10-30 10:10:00+00:00,277.1213,8.0,12.73,47.84626,-54.09684
2019-10-30 10:20:00+00:00,283.5447,8.0,12.81,47.84626,-54.09684
2019-10-30 10:30:00+00:00,294.9847,8.0,12.81,47.84626,-54.09684
2019-10-30 10:40:00+00:00,308.5264,8.0,12.81,47.84626,-54.09684
2019-10-30 10:50:00+00:00,317.248,8.0,12.81,47.84626,-54.09684
2019-10-30 11:00:00+00:00,325.3597,8.0,12.81,47.84626,-54.09684
2019-10-30 11:10:00+00:00,336.5746,8.0,12.73,47.84626,-54.09684
2019-10-30 11:20:00+00:00,345.1212,8.0,12.81,47.84626,-54.09684
2019-10-30 11:30:00+00:00,351.5947,8.0,12.81,47.84626,-54.09684
2019-10-30 11:40:00+00:00,356.2896,8.0,12.89,47.84626,-54.09684
2019-10-30 11:50:00+00:00,361.4362,8.0,12.97,47.84626,-54.09684
2019-10-30 12:00:00+00:00,367.4996,8.0,12.97,47.84626,-54.09684
2019-10-30 12:10:00+00:00,370.463,8.0,12.97,47.84626,-54.09684
2019-10-30 12:20:00+00:00,373.0182,8.0,13.21,47.84626,-54.09684
2019-10-30 12:30:00+00:00,375.9696,8.0,13.6,47.84626,-54.09684
2019-10-30 12:40:00+00:00,379.788,8.0,13.92,47.84626,-54.09684
2019-10-30 12:50:00+00:00,383.0512,8.0,16.47,47.84626,-54.09684
2019-10-30 13:00:00+00:00,384.7213,8.0,16.39,47.84626,-54.09684
2019-10-30 13:10:00+00:00,386.9781,8.0,16.63,47.84626,-54.09684
2019-10-30 13:20:00+00:00,385.2629,8.0,16.63,47.84626,-54.09684
2019-10-30 13:30:00+00:00,379.6929,8.03,15.83,47.84626,-54.09684
2019-10-30 13:40:00+00:00,376.693,8.04,15.44,47.84626,-54.09684
2019-10-30 13:50:00+00:00,374.6963,8.06,15.27,47.84626,-54.09684
2019-10-30 14:00:00+00:00,372.5845,8.07,15.04,47.84626,-54.09684
2019-10-30 14:10:00+00:00,366.3179,8.09,15.11,47.84626,-54.09684
2019-10-30 14:20:00+00:00,362.8612,8.1,15.11,47.84626,-54.09684
2019-10-30 14:30:00+00:00,361.2614,8.1,15.04,47.84626,-54.09684
2019-10-30 14:40:00+00:00,354.5863,8.1,14.96,47.84626,-54.09684
2019-10-30 14:50:00+00:00,346.8479,8.1,14.96,47.84626,-54.09684
2019-10-30 15:00:00+00:00,343.5229,8.1,14.8,47.84626,-54.09684
2019-10-30 15:10:00+00:00,338.2047,8.1,14.8,47.84626,-54.09684
2019-10-30 15:20:00+00:00,326.9813,8.1,14.88,47.84626,-54.09684
2019-10-30 15:30:00+00:00,316.9163,8.1,14.8,47.84626,-54.09684
2019-10-30 15:40:00+00:00,306.0696,8.1,14.8,47.84626,-54.09684
2019-10-30 15:50:00+00:00,293.7663,8.14,14.8,47.84626,-54.09684
2019-10-30 16:00:00+00:00,284.633,8.18,14.64,47.84626,-54.09684
2019-10-30 16:10:00+00:00,274.2548,8.19,14.64,47.84626,-54.09684
2019-10-30 16:20:00+00:00,263.6131,8.2,14.72,47.84626,-54.09684
2019-10-30 16:30:00+00:00,254.9181,8.2,14.72,47.84626,-54.09684
2019-10-30 16:40:00+00:00,246.1998,8.2,14.64,47.84626,-54.09684
2019-10-30 16:50:00+00:00,233.0898,8.2,14.64,47.84626,-54.09684
2019-10-30 17:00:00+00:00,222.6664,8.2,14.56,47.84626,-54.09684
2019-10-30 17:10:00+00:00,214.9148,8.2,14.56,47.84626,-54.09684
2019-10-30 17:20:00+00:00,204.4831,8.2,14.64,47.84626,-54.09684
2019-10-30 17:30:00+00:00,194.5364,8.2,14.56,47.84626,-54.09684
2019-10-30 17:40:00+00:00,187.0698,8.2,14.56,47.84626,-54.09684
2019-10-30 17:50:00+00:00,182.1815,8.2,14.56,47.84626,-54.09684
2019-10-30 18:00:00+00:00,175.5165,8.2,14.48,47.84626,-54.09684
2019-10-30 18:10:00+00:00,170.3381,8.2,14.32,47.84626,-54.09684
2019-10-30 18:20:00+00:00,166.8882,8.2,14.48,47.84626,-54.09684
2019-10-30 18:30:00+00:00,162.0448,8.2,14.4,47.84626,-54.09684
2019-10-30 18:40:00+00:00,159.1798,8.2,14.4,47.84626,-54.09684
2019-10-30 18:50:00+00:00,160.2432,8.2,14.32,47.84626,-54.09684
2019-10-30 19:00:00+00:00,159.7432,8.21,14.24,47.84626,-54.09684
2019-10-30 19:10:00+00:00,157.9416,8.23,14.08,47.84626,-54.09684
2019-10-30 19:20:00+00:00,161.8948,8.21,14.0,47.84626,-54.09684
2019-10-30 19:30:00+00:00,167.1031,8.2,14.0,47.84626,-54.09684
2019-10-30 19:40:00+00:00,168.0399,8.22,13.92,47.84626,-54.09684
2019-10-30 19:50:00+00:00,173.0032,8.2,13.84,47.84626,-54.09684
2019-10-30 20:00:00+00:00,181.7998,8.2,13.76,47.84626,-54.09684
2019-10-30 20:10:00+00:00,185.0782,8.23,13.6,47.84626,-54.09684
2019-10-30 20:20:00+00:00,188.6481,8.25,13.53,47.84626,-54.09684
2019-10-30 20:30:00+00:00,195.8681,8.26,13.44,47.84626,-54.09684
2019-10-30 20:40:00+00:00,201.7398,8.25,13.44,47.84626,-54.09684
2019-10-30 20:50:00+00:00,203.9748,8.24,13.44,47.84626,-54.09684
2019-10-30 21:00:00+00:00,207.5414,8.22,13.29,47.84626,-54.09684
2019-10-30 21:10:00+00:00,213.9715,8.2,13.21,47.84626,-54.09684
2019-10-30 21:20:00+00:00,216.7614,8.2,13.21,47.84626,-54.09684
2019-10-30 21:30:00+00:00,218.3348,8.2,13.13,47.84626,-54.09684
2019-10-30 21:40:00+00:00,223.0615,8.21,13.13,47.84626,-54.09684
2019-10-30 21:50:00+00:00,228.8548,8.21,13.13,47.84626,-54.09684
2019-10-30 22:00:00+00:00,232.8081,8.23,12.97,47.84626,-54.09684
2019-10-30 22:10:00+00:00,238.4364,8.24,12.89,47.84626,-54.09684
2019-10-30 22:20:00+00:00,246.7548,8.25,12.97,47.84626,-54.09684
2019-10-30 22:30:00+00:00,255.5248,8.2,12.97,47.84626,-54.09684
2019-10-30 22:40:00+00:00,262.4781,8.2,12.97,47.84626,-54.09684
2019-10-30 22:50:00+00:00,268.2914,8.2,12.97,47.84626,-54.09684
2019-10-30 23:00:00+00:00,275.7898,8.2,12.89,47.84626,-54.09684
2019-10-30 23:10:00+00:00,284.1164,8.2,12.81,47.84626,-54.09684
2019-10-30 23:20:00+00:00,292.0764,8.2,12.97,47.84626,-54.09684
2019-10-30 23:30:00+00:00,298.5314,8.2,12.97,47.84626,-54.09684
2019-10-30 23:40:00+00:00,308.2447,8.2,12.97,47.84626,-54.09684
2019-10-30 23:50:00+00:00,319.843,8.27,12.97,47.84626,-54.09684
